Terug naar catalogus

CZ-6A DEB

ActiefSSO
NORAD 56661·DEBRIS·🇨🇳 China

Gelanceerd Nov 11, 2022 vanaf Taiyuan Satellite Launch Center

Loading…

Volgende Passages (komende 24 uur)

TLE

VersSource: Space-Track

Epoch: Sep 14, 2026, 21:07 UTC

1 56661U 22151AGM 26257.88002843  .00000321  00000-0  11023-3 0  9996
2 56661  98.6719 311.3440 0101709  17.8232 342.6482 14.40116866183270

Volg CZ-6A DEB in realtime met AllMySat

Download on the App Store